Location: D�rnast
(49.6426°N, 11.9755°E)
Time: 12:30:10
(UTC+00:00)

CZ-2C R/B - Pass Details

Date: 24 January 2021
Orbit: 785 x 870 km, 98.2° (Epoch: 27 February)

Event Time Altitude Azimuth Distance (km) Brightness Sun altitude
Exits shadow 18:10:31 44° 69° (ENE) 1,181 3.0 -21.8°
Maximum altitude 18:11:27 48° 98° (E) 1,115 2.9 -21.9°
Drops below altitude 10° 18:16:51 10° 173° (S) 2,509 5.1 -22.8°
Sets 18:19:19 0° 179° (S) 3,444 5.9 -23.2°
